Location: Saint Louis
(38.6272°N, 90.1978°W)
Time: 21:19:46
(UTC-05:00)

ISS - Pass Details

Date: 16 June 2013
Orbit: 402 x 404 km, 51.6° (Epoch: 26 May)

Event Time Altitude Azimuth Distance (km) Brightness Sun altitude
Rises 21:57:36 0° 300° (WNW) 2,323 2.0 -14.5°
Reaches altitude 10° 21:59:51 10° 288° (WNW) 1,455 0.4 -14.8°
Maximum altitude 22:02:43 29° 226° (SW) 767 -2.0 -15.2°
Enters shadow 22:03:50 23° 190° (S) 905 -1.9 -15.3°
